DW6005 Weather Reports


Display with metric or nautical units.
time (UTC)temp
F
wind
direction
speed
MPH
gust
MPH
rain 1hr
in
rain 24hr
in
rain mn
in
humidity
%
barometer
mb
20260507001548 62 98 0.0 2.0 0.00 0.00 0.00 82 1011.0
20260507000024 62 98 0.0 3.0 0.00 0.00 0.00 82 1011.1
20260506234519 62 98 0.0 3.0 0.00 0.00 0.00 82 1011.2
20260506233019 62 99 0.0 2.0 0.00 0.00 0.00 82 1011.4
20260506231518 62 99 0.0 2.0 0.00 0.00 0.00 82 1011.3
20260506230016 62 99 0.0 2.0 0.00 0.00 0.00 82 1011.4
20260506224516 62 99 0.0 2.0 0.00 0.00 0.00 82 1011.4
20260506223014 62 99 0.0 3.0 0.00 0.00 0.00 83 1011.4
20260506221515 62 99 0.0 2.0 0.00 0.00 0.00 83 1011.4
20260506220011 62 96 1.0 4.0 0.00 0.00 0.00 83 1011.4
20260506214510 62 96 1.0 4.0 0.00 0.00 0.00 83 1011.7
20260506213010 63 116 2.0 7.0 0.00 0.00 0.00 83 1011.8
20260506211509 63 117 1.0 7.0 0.00 0.00 0.00 83 1011.7
20260506210009 63 108 3.0 8.0 0.00 0.00 0.00 82 1011.6
20260506204506 63 111 4.0 8.0 0.00 0.00 0.00 82 1011.6
20260506203009 63 136 4.0 9.0 0.00 0.00 0.00 82 1011.5
20260506201504 63 98 3.0 7.0 0.00 0.00 0.00 81 1011.4
20260506200001 63 130 4.0 8.0 0.00 0.00 0.00 80 1010.9
20260506194503 64 109 3.0 9.0 0.00 0.00 0.00 78 1010.8
20260506193107 64 101 4.0 9.0 0.00 0.00 0.00 77 1010.7
20260506191600 65 108 5.0 11.0 0.00 0.00 0.00 76 1010.5
20260506184558 65 120 5.0 13.0 0.00 0.00 0.00 74 1010.3
20260506183106 66 84 5.0 10.0 0.00 0.00 0.00 73 1010.2
20260506181603 66 109 8.0 13.0 0.00 0.00 0.00 72 1010.0
20260506180056 66 119 5.0 15.0 0.00 0.00 0.00 72 1009.9
20260506174557 66 92 8.0 14.0 0.00 0.00 0.00 71 1009.9
20260506173104 67 105 9.0 16.0 0.00 0.00 0.00 69 1009.8
20260506171555 67 132 9.0 16.0 0.00 0.00 0.00 68 1009.7
20260506170104 67 124 8.0 14.0 0.00 0.00 0.00 68 1009.6
20260506164606 67 119 8.0 14.0 0.00 0.00 0.00 66 1009.7
20260506163059 68 93 8.0 15.0 0.00 0.00 0.00 68 1009.7
20260506161553 68 119 7.0 14.0 0.00 0.00 0.00 68 1009.6
20260506160056 68 104 5.0 14.0 0.00 0.00 0.00 69 1009.4
20260506154553 68 101 8.0 17.0 0.00 0.00 0.00 69 1009.4
20260506153048 69 85 10.0 19.0 0.00 0.00 0.00 68 1009.4
20260506151547 70 96 7.0 16.0 0.00 0.00 0.00 67 1009.4
20260506150059 69 119 9.0 18.0 0.00 0.00 0.00 67 1009.4
20260506144545 70 130 11.0 17.0 0.00 0.00 0.00 67 1009.6
20260506143045 69 125 9.0 18.0 0.00 0.00 0.00 68 1009.4
20260506141545 70 106 10.0 17.0 0.00 0.00 0.00 66 1009.6
20260506140042 70 125 11.0 19.0 0.00 0.00 0.00 66 1009.6
20260506134540 70 113 11.0 19.0 0.00 0.00 0.00 65 1009.7
20260506133050 71 132 10.0 17.0 0.00 0.00 0.00 63 1009.6
20260506131539 72 120 9.0 16.0 0.00 0.00 0.00 62 1009.7
20260506130039 72 105 8.0 15.0 0.00 0.00 0.00 62 1009.8
20260506124537 72 110 8.0 18.0 0.00 0.00 0.00 61 1010.0
20260506123036 72 115 10.0 18.0 0.00 0.00 0.00 61 1010.1
20260506121535 72 126 8.0 15.0 0.00 0.00 0.00 58 1010.1
20260506120050 72 117 10.0 17.0 0.00 0.00 0.00 57 1010.3
20260506114534 72 114 6.0 14.0 0.00 0.00 0.00 55 1010.3
20260506113029 72 125 7.0 16.0 0.00 0.00 0.00 57 1010.5
20260506111528 72 109 8.0 16.0 0.00 0.00 0.00 55 1010.5
20260506110029 71 153 5.0 11.0 0.00 0.00 0.00 57 1010.6
20260506104536 71 82 3.0 13.0 0.00 0.00 0.00 58 1010.7
20260506103037 71 130 6.0 12.0 0.00 0.00 0.00 59 1010.9
20260506101520 70 96 7.0 11.0 0.00 0.00 0.00 61 1011.0
20260506100019 70 104 6.0 12.0 0.00 0.00 0.00 62 1011.1
20260506094515 69 94 2.0 9.0 0.00 0.00 0.00 65 1011.2
20260506093019 69 129 2.0 10.0 0.00 0.00 0.00 65 1011.1
20260506091510 67 119 2.0 11.0 0.00 0.00 0.00 67 1011.0
20260506090008 66 131 4.0 8.0 0.00 0.00 0.00 69 1011.0
20260506084509 67 115 5.0 10.0 0.00 0.00 0.00 68 1010.9
20260506083005 67 161 1.0 7.0 0.00 0.00 0.00 69 1011.0
20260506081503 67 246 0.0 4.0 0.00 0.00 0.00 67 1011.0
20260506080105 66 238 0.0 2.0 0.00 0.00 0.00 63 1011.0
20260506073056 65 52 0.0 3.0 0.00 0.00 0.00 61 1011.1
20260506071558 64 51 0.0 1.0 0.00 0.00 0.00 61 1010.9
20260506061547 60 49 0.0 3.0 0.00 0.00 0.00 65 1010.9
20260506050134 59 281 1.0 4.0 0.00 0.00 0.00 58 1010.0
20260506044537 58 266 1.0 2.0 0.00 0.00 0.00 62 1009.8
20260506043031 58 266 0.0 2.0 0.00 0.00 0.00 65 1009.8
20260506041530 58 266 0.0 2.0 0.00 0.00 0.00 65 1009.7
20260506040034 59 266 1.0 3.0 0.00 0.00 0.00 65 1009.7
20260506034526 58 323 2.0 4.0 0.00 0.00 0.00 67 1009.8
20260506033025 59 324 0.0 3.0 0.00 0.00 0.00 67 1009.9
20260506031522 59 324 1.0 4.0 0.00 0.00 0.00 66 1009.8
20260506030020 60 285 0.0 3.0 0.00 0.00 0.00 65 1009.9
20260506024518 60 255 1.0 4.0 0.00 0.00 0.00 64 1009.8
20260506023031 60 273 1.0 3.0 0.00 0.00 0.00 65 1009.8
20260506021531 62 271 0.0 4.0 0.00 0.00 0.00 63 1009.8
20260506020016 61 261 1.0 6.0 0.00 0.00 0.00 65 1009.9
20260506014518 61 329 1.0 4.0 0.00 0.00 0.00 67 1009.9
20260506013015 61 307 0.0 3.0 0.00 0.00 0.00 73 1009.9
20260506011512 61 288 2.0 4.0 0.00 0.00 0.00 77 1009.9
20260506010013 61 326 0.0 3.0 0.00 0.00 0.00 77 1010.0
20260506004506 62 326 0.0 4.0 0.00 0.00 0.00 78 1010.1
20260506003003 63 46 0.0 2.0 0.00 0.00 0.00 78 1010.1